Dewpoint
61 55 54 50 49 45 43 38 28 31 28 23 21 24 22 18 14 9 6 5 4 6 5 14 19 17 15 24 15 56 56 54 53 52 57 65 71 73 73 73 72 71 71 71 72 71 71 73 73 72 72 72 72 72 72 72 71 71 71 71 71 71 71 71 71 71 71 70 70 70 70 69 69 69 69 69 69 69 69 68 69 68 68 68 69 68 69 69 69 69 68 69 69 69 69 69 69
50 51 54 53 41 37 37 39 28 22 27 23 19 16 14 14 16 14 10 4 -0 3 12 16 19 20 15 17 27 38 62 62 63 65 67 70 72 72 73 73 72 71 71 71 72 71 70 71 73 72 72 72 72 71 71 71 71 71 71 71 71 71 71 71 71 71 70 70 70 69 69 70 70 69 69 69 69 69 68 68 68 68 68 68 68 69 69 69 68 68 68 69 69 69 69 69 68
50 49 44 34 31 35 37 36 28 24 18 21 24 21 17 10 6 4 7 10 6 -1 16 22 23 21 20 20 19 28 61 65 64 65 67 71 69 71 73 73 72 72 72 71 71 71 71 71 73 73 72 72 72 71 71 71 70 71 71 71 71 71 71 71 71 70 70 70 70 69 69 69 69 69 69 69 68 68 68 68 68 68 68 68 68 69 69 69 69 69 69 69 69 69 69 69 68
54 49 43 33 27 34 33 34 31 25 21 16 13 13 18 17 11 9 11 4 5 18 24 21 24 22 22 26 28 39 60 62 65 67 67 67 68 72 73 72 72 72 71 71 71 71 71 72 73 73 72 71 71 71 71 70 71 70 70 71 71 71 71 71 71 70 70 70 69 69 69 69 69 69 69 69 68 68 68 68 68 68 68 68 68 68 68 69 68 68 69 69 69 69 69 69 68
47 46 42 35 30 31 31 26 29 29 24 20 16 14 11 8 6 15 25 14 14 24 26 25 24 28 31 28 40 42 58 64 65 67 67 69 71 72 72 72 71 70 70 70 70 70 71 72 73 72 72 71 71 71 71 70 70 70 70 70 71 71 71 71 71 70 70 69 69 70 69 69 69 69 69 69 68 68 68 68 68 68 68 68 68 68 69 69 69 69 69 69 69 69 69 69 68
47 46 41 33 32 32 31 29 23 21 25 28 25 20 15 8 15 23 23 18 17 24 26 26 23 21 29 57 59 60 60 59 65 66 68 69 72 73 72 72 70 69 69 68 69 69 71 73 73 72 72 71 71 71 71 70 70 70 70 71 71 71 71 71 70 70 70 70 70 70 69 69 69 69 68 68 68 68 68 68 68 68 68 68 68 68 69 68 69 69 69 69 69 69 69 68 68
42 44 33 27 26 29 30 30 28 25 22 21 21 21 19 17 17 24 24 25 24 25 26 26 26 25 24 55 60 64 65 65 65 66 70 71 72 72 72 70 70 69 69 68 69 70 71 73 73 72 72 71 71 71 70 70 70 70 70 71 71 71 71 70 70 70 70 70 70 69 69 69 69 69 69 69 69 69 68 68 69 69 69 69 69 69 69 69 69 69 69 69 69 69 68 68 67
42 33 30 25 22 22 22 23 23 23 23 22 19 17 17 22 19 23 23 23 24 22 23 25 23 21 36 40 57 64 67 68 68 70 71 71 72 72 71 69 69 69 68 68 69 70 73 73 73 72 72 71 71 71 70 70 70 70 70 71 71 71 70 70 69 69 70 70 70 69 69 68 69 69 69 69 69 69 69 69 70 70 70 70 70 70 70 70 70 69 69 69 69 68 68 68 67
35 29 27 27 27 26 22 20 19 19 18 16 13 17 32 18 22 26 25 25 23 24 23 21 23 23 36 44 59 64 64 69 70 71 71 72 72 72 71 69 68 68 69 69 70 72 72 73 72 72 72 71 71 70 70 70 70 70 70 71 70 71 70 70 70 69 69 69 69 69 68 69 69 69 69 69 69 69 69 69 70 70 70 70 70 70 70 70 69 69 69 69 68 68 68 68 68
30 25 24 24 26 25 24 23 20 17 17 17 17 16 14 10 14 21 25 24 25 24 25 29 27 29 33 52 57 61 65 70 70 70 71 72 72 72 71 70 69 69 69 70 71 71 71 72 72 72 72 71 71 71 70 70 71 70 70 70 70 70 70 70 69 69 69 69 69 69 69 69 69 69 69 69 69 69 70 70 70 70 70 70 70 70 69 69 69 69 69 69 68 68 68 69 69
30 24 24 19 19 20 21 20 17 11 8 8 13 14 12 15 20 21 21 23 25 21 23 22 23 25 30 52 60 66 68 69 69 69 71 70 67 69 70 71 70 71 70 71 70 70 71 71 72 72 71 72 71 71 71 71 71 70 71 71 70 70 70 70 69 69 69 69 69 69 69 69 69 69 69 69 69 69 69 69 70 70 70 70 70 70 69 69 69 69 69 68 68 68 68 68 67
25 25 23 20 17 14 13 12 12 8 5 4 8 21 19 19 20 21 22 21 26 28 25 24 32 28 35 48 57 64 67 68 69 70 69 68 65 67 67 68 69 69 71 71 70 70 70 70 70 71 71 71 71 71 71 71 71 71 71 70 70 70 70 69 69 69 69 69 69 69 69 69 69 69 69 69 69 69 69 69 70 70 70 69 70 70 69 69 69 69 69 68 68 68 67 65 64
21 21 20 21 21 19 18 17 15 15 11 12 18 20 19 19 22 24 24 24 27 28 24 25 25 40 43 38 60 64 66 67 69 70 69 67 70 67 68 68 67 67 69 70 70 70 70 70 70 70 70 71 71 71 70 70 71 71 71 70 70 70 70 69 69 69 69 68 69 69 69 69 69 69 69 69 69 69 69 69 69 69 69 69 69 69 69 69 69 69 69 68 68 66 64 63 62
21 21 20 18 16 14 14 13 12 10 9 17 17 21 24 22 23 24 27 27 27 28 27 28 30 35 38 50 57 58 65 68 69 70 70 69 67 67 68 67 66 68 69 70 69 69 69 69 69 70 69 69 70 70 70 70 71 71 70 70 70 70 70 70 69 69 69 69 69 70 70 70 70 69 69 69 69 69 69 69 69 70 69 69 69 69 69 69 69 68 68 67 67 65 63 61 62
16 17 17 19 19 16 11 10 9 7 10 17 21 20 26 27 26 25 26 35 33 28 27 26 32 38 40 39 52 57 65 67 70 70 69 67 67 65 67 67 67 68 69 71 70 68 68 68 68 69 69 69 69 69 69 70 71 71 70 70 70 70 70 69 69 69 69 70 70 70 70 70 70 70 69 69 69 69 69 69 69 69 69 69 69 69 69 69 69 68 68 67 65 63 61 61 61
20 19 18 19 18 17 17 14 17 13 17 21 27 31 30 27 30 34 38 36 37 32 31 30 30 37 39 53 56 63 66 68 69 70 68 65 66 68 67 66 66 68 69 68 69 69 68 68 68 68 68 69 68 68 69 69 70 70 70 70 70 70 70 70 69 69 69 70 70 70 70 70 69 69 70 68 69 69 69 69 69 69 69 69 69 69 69 68 68 69 68 66 64 63 60 57 58
21 22 22 20 20 15 18 16 20 20 20 22 24 28 24 32 34 35 39 39 37 38 36 39 46 41 42 58 61 61 66 68 69 68 67 65 65 65 65 66 67 67 68 68 69 68 68 68 68 67 68 68 67 67 68 68 68 70 69 69 69 69 69 69 69 69 69 70 70 70 69 68 69 68 67 67 68 68 69 69 69 69 69 69 68 68 68 68 68 68 67 67 64 62 62 62 61
21 19 21 22 22 18 18 21 20 21 21 20 23 31 32 31 36 39 39 40 42 40 40 38 40 43 58 60 61 64 67 68 68 68 67 63 64 63 63 65 67 66 66 67 69 68 67 67 67 67 67 67 67 67 65 67 68 68 67 68 67 68 69 69 69 68 69 68 69 68 67 66 66 66 67 68 68 69 68 69 69 69 69 69 69 68 68 68 68 68 68 67 66 64 63 61 64
23 22 21 18 16 19 19 21 19 18 20 24 23 26 33 34 35 43 38 39 41 39 40 38 40 41 58 59 62 63 67 67 67 67 67 63 64 63 63 64 66 66 67 68 68 68 67 66 67 67 67 67 67 65 66 67 66 66 66 66 67 69 69 68 67 67 66 65 65 64 66 66 63 63 66 66 67 68 68 69 69 69 69 69 69 68 68 68 68 68 68 68 65 65 65 62 59
23 22 22 21 20 22 22 21 21 20 22 25 30 31 32 45 44 44 40 38 41 38 37 38 42 44 54 55 58 61 66 67 67 65 66 65 63 63 63 64 66 66 67 67 67 68 67 66 66 67 66 67 65 65 66 66 65 65 66 66 67 67 67 64 64 63 60 63 63 66 66 65 66 68 64 67 68 68 69 68 69 69 69 69 69 68 68 68 68 68 68 68 69 65 63 63 56
21 24 21 20 20 23 23 23 24 25 26 28 31 36 31 43 43 43 42 39 38 39 40 42 47 48 52 57 58 59 61 65 65 65 65 66 64 63 65 64 66 66 67 68 67 67 67 67 66 66 66 66 64 65 64 63 63 63 63 64 64 65 65 63 63 62 64 63 62 65 62 63 64 66 67 66 66 67 67 67 67 67 68 68 68 67 67 65 68 64 65 68 66 65 61 60 56
22 23 23 23 25 26 26 26 28 31 31 34 36 34 39 45 43 43 43 40 36 38 41 45 47 49 54 54 58 60 59 60 62 64 64 65 64 63 65 65 67 68 68 66 67 67 66 67 66 65 65 65 64 62 62 62 62 61 62 62 62 63 63 63 65 64 63 63 61 58 62 64 63 63 64 64 64 65 65 65 64 65 65 66 68 64 65 65 66 67 62 62 64 61 62 61 57
25 26 27 28 27 27 28 29 33 31 30 33 32 43 46 42 39 42 43 42 42 45 46 47 49 53 56 57 58 59 59 60 62 63 63 64 63 63 65 66 66 65 66 66 68 68 66 67 67 66 64 63 62 61 60 60 60 61 62 62 61 61 64 64 63 63 64 65 62 59 61 62 62 61 65 69 63 62 62 62 62 62 62 64 65 68 65 68 69 66 63 62 61 60 58 57 57
26 26 30 30 29 27 29 34 35 33 37 35 36 46 44 43 38 42 42 44 44 46 49 49 53 55 57 57 58 59 60 60 61 63 63 64 63 62 65 65 65 66 67 67 68 68 66 67 66 66 63 61 61 57 58 57 59 60 62 63 61 61 62 62 61 64 65 71 63 65 69 66 66 61 63 65 67 66 61 61 62 59 60 61 64 66 66 68 68 66 65 59 56 61 52 54 57
28 31 31 28 28 35 35 35 35 38 38 39 38 40 40 38 38 40 42 44 45 46 47 57 56 58 58 58 58 59 59 60 61 63 64 63 63 65 65 65 65 65 65 66 68 68 68 66 65 65 61 60 61 58 57 58 59 60 61 61 59 63 63 64 61 63 64 63 66 66 67 66 66 64 62 63 65 65 67 62 64 61 61 58 62 65 65 64 65 65 64 61 61 61 57 63 58
31 32 34 32 32 38 37 38 38 42 42 43 39 38 39 39 43 40 42 45 48 49 56 57 59 58 58 58 59 59 59 59 61 63 64 64 65 65 64 64 65 65 66 67 67 67 69 65 62 63 61 60 60 59 61 60 60 59 60 61 61 65 59 60 62 62 61 62 63 64 64 63 64 66 62 60 60 66 64 64 67 59 69 61 62 67 66 65 69 65 61 62 54 61 60 57 61
33 32 33 30 33 39 41 42 41 43 44 44 43 41 41 42 42 38 51 53 53 54 54 54 55 56 58 59 59 59 59 58 61 64 64 64 64 64 64 64 64 66 66 66 67 68 69 65 63 61 60 62 61 63 62 62 62 61 60 61 61 61 62 63 61 61 63 63 65 68 64 68 70 62 67 65 63 64 70 70 67 65 65 61 64 65 68 66 70 65 62 63 60 61 60 59 57
32 31 32 33 35 41 41 42 43 45 44 47 46 45 44 43 43 40 43 52 54 54 53 53 54 54 56 58 58 59 60 58 62 64 63 63 64 64 64 62 64 65 66 66 67 67 69 66 63 60 61 63 65 61 62 61 63 62 61 61 61 62 63 66 59 60 60 63 62 64 65 64 65 65 67 66 62 65 63 68 65 67 64 64 64 62 65 67 66 63 62 66 66 66 62 60 59
32 34 31 35 40 39 43 42 44 43 44 48 49 46 44 44 41 44 46 49 52 53 54 53 54 53 53 56 57 57 61 60 63 63 63 63 63 63 64 65 64 64 66 67 68 66 66 65 63 63 63 65 61 59 60 62 62 61 62 62 63 64 64 62 61 58 60 62 65 65 66 63 66 66 70 64 63 63 65 65 67 68 69 62 69 63 62 67 66 67 65 66 66 66 64 63 56
37 38 40 41 39 37 42 44 42 43 46 51 49 35 34 39 44 45 50 52 53 53 51 50 50 50 53 56 55 57 60 61 62 61 63 63 64 64 65 64 64 65 66 67 68 65 65 64 64 63 63 62 62 61 63 62 63 62 62 62 65 66 66 63 59 60 61 62 63 66 62 62 65 69 66 67 68 65 67 63 66 68 67 63 66 64 66 65 65 64 65 63 62 62 61 60 64
37 45 42 38 37 34 45 48 50 44 48 49 50 38 36 40 43 47 51 52 52 49 49 50 51 53 54 54 55 56 59 63 61 62 62 63 64 65 65 65 64 65 67 68 67 65 65 62 64 61 63 63 61 62 62 63 64 61 62 64 65 66 64 59 59 60 61 63 62 66 67 62 63 63 65 68 66 67 64 66 64 64 65 69 64 63 68 66 66 63 65 63 68 67 57 60 56
42 39 36 37 44 35 45 48 47 46 48 50 48 39 40 42 42 51 53 53 53 51 49 50 52 54 55 53 55 56 59 60 61 62 62 63 63 65 66 64 64 65 65 66 68 66 64 63 64 62 63 63 63 64 62 63 63 62 61 63 66 66 60 59 60 58 57 59 60 62 63 62 60 59 57 67 67 65 63 70 71 66 65 65 65 65 62 65 62 65 65 66 67 60 59 57 62
47 37 37 35 39 38 41 46 48 48 47 48 47 39 42 43 48 51 54 54 55 53 51 53 54 53 54 54 55 57 60 59 61 62 63 64 65 66 66 66 65 64 65 66 65 66 64 62 63 62 62 63 62 61 61 64 64 61 62 62 59 65 62 59 61 62 60 60 57 57 61 66 55 60 61 63 68 65 65 64 64 65 63 66 67 66 66 64 65 62 70 64 65 67 62 57 63
41 42 33 36 37 38 37 45 48 46 46 42 47 43 41 42 44 48 53 54 54 53 54 53 54 54 54 55 57 58 58 59 59 61 63 64 65 66 66 67 68 67 66 66 65 65 61 62 63 63 63 60 63 63 63 63 63 62 63 63 64 60 58 60 57 56 59 57 56 58 58 61 65 59 61 63 63 63 62 63 60 63 62 64 66 69 65 63 65 68 67 69 64 69 66 62 61
35 35 33 34 34 40 39 40 43 45 46 45 45 44 42 42 44 47 50 55 54 54 54 54 54 52 54 57 57 58 59 59 60 61 63 63 64 64 65 66 67 68 67 66 65 61 60 62 63 65 64 63 64 65 64 65 66 65 65 64 63 63 63 61 60 58 59 57 57 58 60 62 61 63 62 62 65 62 60 62 64 68 64 64 64 64 66 66 67 66 66 68 67 62 65 63 64
36 36 35 36 36 39 38 43 46 44 43 44 44 41 41 43 44 46 48 52 52 54 54 55 54 54 55 57 56 57 59 59 61 62 63 63 63 64 65 66 65 66 67 65 64 59 60 62 62 64 64 63 64 64 63 62 64 63 62 63 61 61 56 62 61 56 59 59 61 58 57 69 58 63 57 63 64 62 62 66 63 67 64 66 63 64 66 66 67 66 65 64 65 63 61 63 64
41 39 39 38 37 38 46 45 47 44 44 42 42 44 44 45 46 48 48 52 52 53 53 54 54 55 55 55 56 57 59 59 62 63 63 63 63 65 64 65 65 67 67 64 61 59 60 60 62 63 64 64 63 61 62 62 63 64 66 63 66 65 57 62 58 60 59 63 56 53 58 57 60 53 59 59 64 61 65 64 66 63 65 64 63 64 65 66 66 67 67 65 64 63 60 63 59
42 41 39 37 41 38 45 46 46 48 44 42 44 43 44 46 48 49 51 50 50 53 52 53 54 55 55 56 57 60 59 60 61 62 62 63 63 64 64 65 65 65 65 64 61 60 61 60 61 62 63 64 64 64 64 65 65 64 64 62 59 61 59 61 58 63 65 54 60 60 64 62 62 55 60 62 58 61 63 66 63 67 65 66 67 65 63 65 65 65 64 65 62 61 66 63 62
44 41 39 37 38 45 45 46 46 47 46 43 42 42 46 47 49 50 51 53 55 55 55 54 54 55 55 57 57 59 59 59 60 61 62 63 63 63 64 65 65 65 65 61 60 61 62 62 63 63 63 64 64 65 65 65 66 65 68 68 66 58 62 67 56 58 60 54 60 59 62 66 60 48 50 60 58 57 62 67 68 68 65 66 66 63 67 63 64 62 63 64 63 60 63 63 65
48 39 35 37 42 42 42 45 45 44 44 42 42 43 45 47 48 50 51 51 52 54 55 55 56 56 55 56 57 58 58 58 59 60 61 63 63 64 63 64 64 66 65 60 61 62 62 63 63 64 63 64 64 65 65 66 67 67 68 67 64 64 64 64 60 63 59 57 58 60 58 65 62 53 47 44 47 61 64 63 65 64 69 64 63 66 65 61 62 62 61 62 63 62 59 63 63
42 42 39 36 42 46 43 44 49 46 45 46 46 45 46 47 46 48 50 53 53 53 54 53 56 57 58 58 59 58 58 58 59 60 61 62 63 63 63 64 64 63 64 64 61 60 60 61 63 64 64 64 64 65 66 68 68 67 68 65 68 65 63 62 59 62 57 60 60 59 57 61 57 55 53 53 50 55 61 62 64 65 65 65 63 65 64 63 60 59 60 60 60 60 59 65 65
39 41 41 42 40 39 43 47 47 46 45 45 46 39 42 47 47 45 47 51 51 53 52 52 52 53 56 56 57 59 58 58 59 60 61 62 62 63 63 63 63 63 64 64 62 61 61 61 61 64 64 63 63 66 69 69 68 66 66 65 64 64 63 62 62 61 59 58 53 60 54 58 59 61 51 57 50 53 57 61 63 60 63 66 65 63 62 62 60 60 56 59 59 62 60 60 59
39 41 42 41 42 41 42 43 47 36 37 44 45 41 37 47 47 49 50 49 49 51 51 51 50 50 50 54 56 57 57 57 59 61 62 62 62 62 63 63 62 64 65 66 65 62 60 61 62 62 63 63 63 66 67 68 67 67 65 61 62 63 61 66 64 64 65 60 57 61 57 61 59 60 63 53 56 56 60 61 61 60 57 64 63 63 62 60 55 50 59 60 61 63 62 60 60
40 42 43 43 43 43 43 42 45 45 46 45 46 47 42 41 47 49 49 49 50 51 51 49 49 48 50 54 57 56 57 58 59 60 61 61 62 62 62 63 64 64 65 65 67 62 62 62 62 62 63 63 62 66 65 66 66 67 66 62 63 63 62 63 65 64 64 60 60 59 60 65 63 65 63 62 53 55 57 60 59 61 56 63 60 61 61 59 59 55 60 59 62 61 64 63 61
43 45 45 45 44 44 43 42 44 45 44 43 44 44 41 41 46 49 50 48 48 50 50 48 48 49 52 53 55 57 58 58 59 60 60 61 62 63 63 63 64 64 65 66 66 66 65 63 62 62 63 64 66 66 66 67 67 67 65 63 64 64 63 64 63 63 63 63 61 60 58 58 63 63 59 58 56 53 56 58 55 53 59 56 60 57 62 54 56 59 61 62 61 62 63 64 63
45 47 47 45 44 44 43 42 42 43 43 38 42 44 41 40 47 48 50 48 47 48 48 47 49 53 54 55 54 57 57 58 60 61 60 61 62 63 63 63 64 64 65 67 67 66 65 62 62 61 65 67 67 67 66 66 66 66 65 65 62 62 65 62 64 64 63 63 61 63 65 60 61 63 65 62 57 60 59 59 51 50 55 57 53 59 60 58 60 62 62 63 63 60 64 64 62
47 47 45 44 43 43 44 46 42 42 34 37 41 45 44 38 44 46 46 48 47 47 47 50 53 54 56 56 55 58 57 57 59 59 60 61 62 62 63 63 64 65 65 66 66 66 65 62 63 67 67 67 66 67 67 66 67 64 64 63 62 60 58 61 63 62 61 63 61 57 63 65 64 59 63 66 60 56 60 59 54 53 54 63 60 55 60 61 61 64 60 59 60 62 61 62 62
46 45 45 44 43 41 41 44 42 37 34 40 44 44 43 38 43 49 51 51 47 46 48 51 52 54 56 56 56 58 57 58 60 60 61 61 62 62 63 63 63 64 65 65 66 66 66 65 66 66 67 67 67 66 67 66 67 65 65 64 63 62 60 57 60 59 56 54 58 59 62 62 61 63 62 62 62 59 61 65 60 57 58 60 59 60 59 60 60 58 61 62 61 60 61 62 61
45 44 42 39 41 41 33 35 32 34 34 40 44 46 41 41 45 51 51 51 50 46 48 50 53 54 56 57 58 57 59 59 60 60 60 61 61 61 62 63 62 63 64 64 65 66 66 66 66 65 66 66 67 67 66 66 66 65 65 65 64 65 63 59 57 60 59 65 62 59 60 59 62 64 61 61 60 59 60 62 59 61 67 61 62 57 59 59 64 59 55 58 60 59 61 61 59
45 42 41 39 37 34 30 32 35 42 40 43 44 44 41 45 49 52 52 51 47 46 46 48 51 53 56 57 58 59 58 59 60 60 59 60 61 61 61 62 62 63 63 64 64 65 66 65 65 65 65 66 67 67 66 67 66 68 67 66 64 64 64 64 65 61 59 63 65 57 58 62 61 62 59 60 56 53 57 59 60 63 57 58 58 59 58 57 59 56 58 53 55 61 60 60 62
43 45 43 43 40 38 33 36 34 34 35 39 42 40 39 39 45 53 54 52 46 46 46 46 50 55 58 57 59 59 60 57 58 58 59 59 61 62 62 63 63 63 63 64 64 64 65 65 65 66 65 66 67 67 67 68 67 67 67 66 66 65 64 66 67 64 64 58 62 58 61 58 62 59 57 60 60 56 60 56 59 63 62 64 60 61 59 56 61 60 55 61 61 63 59 61 62
45 45 44 42 41 46 38 37 42 36 35 37 39 39 43 44 51 53 55 54 48 45 46 49 50 53 57 58 58 59 60 60 60 59 60 61 62 63 63 63 63 63 63 64 64 64 65 65 66 65 65 65 65 65 67 67 67 68 67 66 65 65 65 67 69 67 68 67 63 60 63 63 62 60 61 59 58 60 58 56 58 56 59 58 61 59 57 59 56 64 62 60 60 52 56 54 58
44 43 40 38 40 42 40 39 39 41 35 37 38 42 46 47 52 52 54 54 50 50 50 51 51 50 53 56 57 58 59 59 59 59 60 61 61 63 63 62 62 63 64 64 65 65 65 65 65 65 65 65 66 66 66 66 67 68 67 66 66 66 65 65 66 66 64 67 67 66 67 60 62 65 63 65 63 65 65 65 65 66 65 61 61 60 57 59 60 58 58 59 60 60 60 61 59
45 40 38 43 40 44 42 36 32 34 33 35 42 39 40 44 38 50 51 53 54 53 54 55 55 54 53 56 57 59 58 59 58 58 60 61 61 61 61 62 63 64 64 64 64 65 66 65 65 65 64 64 65 66 66 66 67 67 67 66 66 65 64 62 66 65 65 66 68 67 66 66 65 62 66 65 66 66 65 64 64 65 65 64 65 60 56 60 62 62 60 61 62 62 60 61 62
44 41 43 42 40 43 40 38 29 30 32 35 39 39 40 42 43 46 47 52 52 54 54 54 54 54 55 57 58 59 60 59 60 59 60 60 61 61 62 64 63 64 64 65 65 66 66 65 65 66 65 64 65 65 66 66 67 66 66 66 65 66 66 65 66 65 66 64 63 65 65 67 67 67 66 66 65 63 64 66 66 65 64 62 63 63 63 62 62 64 61 61 61 62 62 61 61
43 45 43 43 45 41 38 39 40 40 30 33 35 38 38 45 44 49 46 50 52 52 54 55 53 55 57 57 57 58 59 59 59 59 59 61 61 61 61 63 63 63 64 64 63 64 65 65 65 65 66 65 65 65 66 66 66 67 66 67 66 65 65 64 66 65 65 63 60 63 65 66 68 68 67 65 67 66 65 65 63 64 64 61 59 63 61 59 62 62 63 63 61 60 57 57 58
39 41 42 44 42 44 43 42 44 42 33 32 33 34 40 47 50 47 48 48 53 53 53 54 55 56 57 57 58 59 59 59 59 59 60 62 62 62 63 63 63 64 64 64 64 64 65 65 65 65 66 65 65 66 66 65 65 66 66 66 67 66 66 66 67 65 67 67 66 67 67 67 67 67 67 66 65 65 64 65 63 63 64 63 63 62 61 62 63 63 60 60 58 56 55 56 59
41 42 42 43 41 42 39 34 41 41 37 32 32 36 44 48 52 49 51 50 52 53 54 55 54 56 57 58 58 59 60 60 60 61 61 62 62 62 62 62 63 62 64 64 64 65 64 64 65 64 64 65 64 65 65 65 65 66 65 65 65 65 65 66 66 67 66 66 68 68 66 65 65 67 67 65 63 64 64 67 63 62 63 63 63 62 62 64 63 62 62 58 58 56 58 57 63